Winona, MN

12:33 AM CDT on June 29, 2017 (GMT -0500)
Winona Municipal-Conrad

Weather History for KONA - March, 2014

Change the Weather History Date:

Friday, March 21, 2014

  Actual Average Record
Temperature  
Mean Temperature 38 °F -  
Max Temperature 48 °F 43 °F 64 °F (2009)
Min Temperature 28 °F 26 °F 0 °F (2013)
Degree Days  
Heating Degree Days 27    
Moisture  
Dew Point 29 °F    
Average Humidity 75    
Maximum Humidity 93    
Minimum Humidity 54    
Precipitation  
Precipitation 0.00 in - - ()
Sea Level Pressure  
Sea Level Pressure 29.86 in    
Wind  
Wind Speed 6 mph (WSW)    
Max Wind Speed 21 mph    
Max Gust Speed 31 mph    
Visibility 10 miles    
Events      
Averages and records for this station are not official NWS values.
T = Trace of Precipitation, MM = Missing Value Source: NWS Daily Summary

Daily Weather History Graph

Daily Weather History Graph

Search for Another Location

Airport or City:

Trip Planner

Search our weather history database for the weather conditions in past years. The results will help you decide how hot, cold, wet, or windy it might be!

Date:

Astronomy

Mar. 21, 2014 Rise Set
Actual Time 7:08 AM CDT 7:20 PM CDT
Civil Twilight 6:39 AM CDT 7:49 PM CDT
Nautical Twilight 6:05 AM CDT 8:23 PM CDT
Astronomical Twilight 5:30 AM CDT 8:58 PM CDT
Moon No Moon Rise 9:50 AM CDT (3/21)
Length of Visible Light 13h 10m
Length of Day
12h 12m
Waning Gibbous, 75% of the Moon is Illuminated
Mar 21
Waning Gibbous
Mar 23
Last Quarter
Mar 30
New
Apr 7
First Quarter
Apr 15
Full

Hourly Weather History & Observations

Time (CDT) Temp. Windchill Dew Point Humidity Pressure Visibility Wind Dir Wind Speed Gust Speed Precip Events Conditions
12:20 AM 28.4 °F - 26.6 °F 93% 29.97 in 10.0 mi Calm Calm - N/A   Clear
12:40 AM 30.2 °F - 28.4 °F 93% 29.96 in 10.0 mi Calm Calm - N/A   Clear
12:59 AM 30.2 °F - 28.4 °F 93% 29.95 in 10.0 mi Calm Calm - N/A   Clear
1:20 AM 28.4 °F - 26.6 °F 93% 29.94 in 10.0 mi Calm Calm - N/A   Clear
1:39 AM 30.2 °F - 26.6 °F 86% 29.94 in 10.0 mi Calm Calm - N/A   Clear
1:59 AM 30.2 °F 25.4 °F 26.6 °F 86% 29.93 in 10.0 mi SSE 4.6 mph - N/A   Clear
2:20 AM 30.2 °F 26.7 °F 26.6 °F 86% 29.93 in 10.0 mi South 3.5 mph - N/A   Clear
2:40 AM 30.2 °F 26.7 °F 26.6 °F 86% 29.92 in 10.0 mi South 3.5 mph - N/A   Clear
2:59 AM 30.2 °F - 26.6 °F 86% 29.92 in 10.0 mi Calm Calm - N/A   Clear
3:20 AM 28.4 °F - 24.8 °F 86% 29.92 in 10.0 mi Calm Calm - N/A   Clear
3:40 AM 30.2 °F 26.7 °F 26.6 °F 86% 29.91 in 10.0 mi South 3.5 mph - N/A   Clear
3:59 AM 30.2 °F 26.7 °F 26.6 °F 86% 29.90 in 10.0 mi SSW 3.5 mph - N/A   Clear
4:20 AM 30.2 °F 24.3 °F 26.6 °F 86% 29.89 in 10.0 mi SSE 5.8 mph - N/A   Clear
4:40 AM 30.2 °F 25.4 °F 26.6 °F 86% 29.89 in 10.0 mi SSE 4.6 mph - N/A   Clear
4:59 AM 28.4 °F - 26.6 °F 93% 29.90 in 10.0 mi Calm Calm - N/A   Clear
5:20 AM 28.4 °F - 24.8 °F 86% 29.89 in 10.0 mi Calm Calm - N/A   Clear
5:40 AM 30.2 °F 25.4 °F 26.6 °F 86% 29.89 in 10.0 mi SSW 4.6 mph - N/A   Clear
5:59 AM 28.4 °F 23.3 °F 24.8 °F 86% 29.89 in 10.0 mi SE 4.6 mph - N/A   Clear
6:20 AM 28.4 °F - 24.8 °F 86% 29.90 in 10.0 mi Calm Calm - N/A   Clear
6:40 AM 30.2 °F - 26.6 °F 86% 29.91 in 10.0 mi Calm Calm - N/A   Scattered Clouds
6:59 AM 30.2 °F - 26.6 °F 86% 29.90 in 10.0 mi Calm Calm - N/A   Mostly Cloudy
7:20 AM 30.2 °F 25.4 °F 26.6 °F 86% 29.89 in 10.0 mi South 4.6 mph - N/A   Scattered Clouds
7:40 AM 30.2 °F 23.4 °F 26.6 °F 86% 29.88 in 10.0 mi SSE 6.9 mph - N/A   Clear
7:59 AM 30.2 °F 23.4 °F 26.6 °F 86% 29.87 in 10.0 mi SE 6.9 mph - N/A   Clear
8:20 AM 30.2 °F 22.6 °F 26.6 °F 86% 29.84 in 10.0 mi SE 8.1 mph - N/A   Clear
8:40 AM 32.0 °F 25.6 °F 28.4 °F 87% 29.84 in 10.0 mi South 6.9 mph - N/A   Clear
8:59 AM 33.8 °F 27.7 °F 30.2 °F 87% 29.85 in 10.0 mi ESE 6.9 mph - N/A   Scattered Clouds
9:20 AM 35.6 °F 31.7 °F 28.4 °F 75% 29.82 in 10.0 mi SE 4.6 mph - N/A   Scattered Clouds
9:40 AM 35.6 °F 31.7 °F 28.4 °F 75% 29.80 in 10.0 mi ESE 4.6 mph - N/A   Scattered Clouds
9:59 AM 37.4 °F 30.8 °F 28.4 °F 70% 29.78 in 10.0 mi SE 9.2 mph - N/A   Clear
10:20 AM 41.0 °F 38.0 °F 26.6 °F 57% 29.79 in 10.0 mi South 4.6 mph - N/A   Scattered Clouds
10:40 AM 41.0 °F 35.8 °F 26.6 °F 57% 29.78 in 10.0 mi SSE 8.1 mph - N/A   Scattered Clouds
10:59 AM 41.0 °F 37.1 °F 26.6 °F 57% 29.79 in 10.0 mi South 5.8 mph - N/A   Scattered Clouds
11:20 AM 41.0 °F 36.4 °F 26.6 °F 57% 29.79 in 10.0 mi SSE 6.9 mph - N/A   Overcast
11:40 AM 41.0 °F 39.0 °F 26.6 °F 57% 29.79 in 10.0 mi West 3.5 mph - N/A   Overcast
11:59 AM 42.8 °F - 28.4 °F 57% 29.79 in 10.0 mi Calm Calm - N/A   Overcast
12:20 PM 44.6 °F 41.4 °F 30.2 °F 57% 29.79 in 10.0 mi WSW 5.8 mph - N/A   Overcast
12:40 PM 46.4 °F 43.5 °F 32.0 °F 57% 29.77 in 10.0 mi West 5.8 mph - N/A   Mostly Cloudy
12:59 PM 48.2 °F - 32.0 °F 54% 29.77 in 10.0 mi WSW 10.4 mph - N/A   Mostly Cloudy
1:20 PM 46.4 °F 42.9 °F 32.0 °F 57% 29.77 in 10.0 mi WSW 6.9 mph - N/A   Mostly Cloudy
1:39 PM 48.2 °F - 33.8 °F 58% 29.76 in 10.0 mi WSW 10.4 mph 16.1 mph N/A   Scattered Clouds
2:00 PM 48.2 °F - 33.8 °F 58% 29.76 in 10.0 mi West 12.7 mph 18.4 mph N/A   Mostly Cloudy
2:20 PM 46.4 °F 41.5 °F 32.0 °F 57% 29.74 in 10.0 mi SW 10.4 mph - N/A   Scattered Clouds
2:39 PM 46.4 °F 43.5 °F 32.0 °F 57% 29.75 in 10.0 mi West 5.8 mph - N/A   Scattered Clouds
3:00 PM 46.4 °F 42.4 °F 32.0 °F 57% 29.75 in 10.0 mi WNW 8.1 mph - N/A   Mostly Cloudy
3:20 PM 46.4 °F 42.4 °F 33.8 °F 62% 29.75 in 10.0 mi West 8.1 mph - N/A   Mostly Cloudy
3:39 PM 46.4 °F 43.5 °F 33.8 °F 62% 29.75 in 10.0 mi WNW 5.8 mph - N/A   Overcast
4:00 PM 46.4 °F 42.4 °F 33.8 °F 62% 29.74 in 10.0 mi WNW 8.1 mph - N/A   Overcast
4:19 PM 48.2 °F - 35.6 °F 62% 29.74 in 10.0 mi WNW 6.9 mph 18.4 mph N/A   Overcast
4:39 PM 44.6 °F 36.6 °F 33.8 °F 66% 29.76 in 10.0 mi WNW 19.6 mph 25.3 mph N/A   Overcast
5:00 PM 42.8 °F 35.1 °F 32.0 °F 66% 29.78 in 10.0 mi West 16.1 mph 25.3 mph N/A   Overcast
5:19 PM 41.0 °F 33.9 °F 32.0 °F 70% 29.79 in 10.0 mi WNW 12.7 mph 23.0 mph N/A   Overcast
5:39 PM 41.0 °F 33.1 °F 32.0 °F 70% 29.80 in 10.0 mi WNW 15.0 mph 23.0 mph N/A   Overcast
6:00 PM 37.4 °F 27.2 °F 32.0 °F 81% 29.81 in 10.0 mi NW 19.6 mph 25.3 mph N/A   Overcast
6:20 PM 37.4 °F 28.2 °F 32.0 °F 81% 29.82 in 10.0 mi NW 16.1 mph 23.0 mph N/A   Overcast
6:39 PM 37.4 °F 28.2 °F 32.0 °F 81% 29.83 in 10.0 mi NW 16.1 mph 19.6 mph N/A   Overcast
7:00 PM 37.4 °F 28.9 °F 32.0 °F 81% 29.85 in 10.0 mi NW 13.8 mph 26.5 mph N/A   Overcast
7:20 PM 37.4 °F 26.9 °F 32.0 °F 81% 29.86 in 10.0 mi NW 20.7 mph 25.3 mph N/A   Overcast
7:39 PM 37.4 °F 27.8 °F 32.0 °F 81% 29.87 in 10.0 mi NW 17.3 mph 28.8 mph N/A   Overcast
8:00 PM 37.4 °F 28.2 °F 30.2 °F 75% 29.88 in 10.0 mi NW 16.1 mph 31.1 mph N/A   Overcast
8:20 PM 37.4 °F 27.8 °F 30.2 °F 75% 29.89 in 10.0 mi NW 17.3 mph 25.3 mph N/A   Overcast
8:39 PM 37.4 °F 28.2 °F 30.2 °F 75% 29.91 in 10.0 mi NW 16.1 mph 21.9 mph N/A   Overcast
9:00 PM 37.4 °F 27.2 °F 30.2 °F 75% 29.93 in 10.0 mi NW 19.6 mph 24.2 mph N/A   Overcast
9:20 PM 35.6 °F 28.0 °F 28.4 °F 75% 29.94 in 10.0 mi NW 10.4 mph - N/A   Overcast
9:39 PM 35.6 °F 24.8 °F 28.4 °F 75% 29.95 in 10.0 mi NW 19.6 mph 31.1 mph N/A   Overcast
10:00 PM 35.6 °F 25.2 °F 28.4 °F 75% 29.97 in 10.0 mi NW 18.4 mph 24.2 mph N/A   Overcast
10:19 PM 35.6 °F 24.8 °F 28.4 °F 75% 29.97 in 10.0 mi NNW 19.6 mph 27.6 mph N/A   Overcast
10:40 PM 35.6 °F 25.2 °F 28.4 °F 75% 29.99 in 10.0 mi NW 18.4 mph 28.8 mph N/A   Overcast
11:00 PM 35.6 °F 25.9 °F 30.2 °F 81% 30.00 in 10.0 mi NW 16.1 mph 27.6 mph N/A   Overcast
11:19 PM 35.6 °F 25.5 °F 30.2 °F 81% 30.02 in 10.0 mi NW 17.3 mph 24.2 mph N/A   Overcast
11:40 PM 35.6 °F 26.6 °F 28.4 °F 75% 30.03 in 10.0 mi NW 13.8 mph 26.5 mph N/A   Overcast